Flag for Poland Weather past 2 weeks in Grudziądz, Poland

Now
70 °F

Partly sunny.


Feels Like: 70 °F
Forecast: 55 / 71 °F
Wind: 5 mph from South

Location: Torun

Current Time: Aug 22, 2014 at 6:35:50 PM

Latest Report: Aug 22, 2014 at 6:00 PM


Visibility: 31 mi

Pressure: 29.92 "Hg

Humidity: 36%

Dew point: 42 °F

Location of GrudziądzLocation

Historic Weather in Grudziądz — Graph

°F

Grudziądz temperature yesterday

Maximum temperature yesterday: 66 °F (at 2:00 PM)
Minimum temperature yesterday: 45 °F (at 4:00 AM)
Average temperature yesterday: 55 °F

Past Weeks' High & Low Weather Summary

 TemperatureHumidityPressure
High87 °F (Aug 9, 4:00 PM)99% (Aug 16, 1:00 AM)30.02 "Hg (Aug 16, 1:00 AM)
Low41 °F (Aug 22, 6:00 AM)28% (Aug 9, 4:00 PM)29.56 "Hg (Aug 14, 4:00 AM)
Average64 °F70%29.86 "Hg
* Reported Aug 7 5:00 PM — Aug 22 5:00 PM, Grudziądz, Weather by CustomWeather, © 2014

Note: Actual official high and low records may vary slightly from our data, if they occured in-between our weather recording intervals... More about our weather records

Advertising

Grudziądz weather history for previous 24 hours

 ConditionsComfort  
Time TempWeatherWind HumidityBarometerVisibility
5:00 PM
Aug 22
72 °FPartly sunny.5 mph30%29.92 "Hg31 mi
4:00 PM71 °FPartly sunny.3 mph35%29.93 "Hg25 mi
3:00 PM69 °FPartly sunny.5 mph34%29.95 "Hg28 mi
2:00 PM70 °FPartly sunny.3 mph39%29.96 "Hg22 mi
1:00 PM69 °FScattered clouds.3 mph41%29.98 "Hg22 mi
12:00 PM65 °FPartly sunny.3 mph50%30.00 "Hg28 mi
11:00 AM66 °FPartly sunny.2 mph52%30.00 "Hg19 mi
10:00 AM63 °FPassing clouds.2 mph62%30.01 "Hg19 mi
9:00 AM58 °FPassing clouds.2 mph71%30.01 "Hg13 mi
8:00 AM53 °FScattered clouds.2 mph84%30.02 "Hg16 mi
7:00 AM47 °FFog.1 mph99%30.02 "Hg6 mi
6:00 AM41 °FFog.No wind97%30.02 "Hg3 mi
5:00 AM42 °FFog.No wind97%30.02 "Hg6 mi
4:00 AM43 °FClear.No wind95%30.02 "Hg7 mi
3:00 AM45 °FPassing clouds.1 mph97%30.02 "Hg11 mi
2:00 AM45 °FFog.1 mph97%30.02 "Hg4 mi
1:00 AM46 °FFog.1 mph96%30.02 "Hg31 mi
12:00 AM46 °FClear.No wind94%30.02 "Hg6 mi
11:00 PM
Aug 21
48 °FClear.No wind94%30.01 "Hg8 mi
10:00 PM49 °FPassing clouds.1 mph89%30.00 "Hg14 mi
9:00 PM51 °FPassing clouds.1 mph82%30.00 "Hg15 mi
8:00 PM57 °FPassing clouds.1 mph67%29.98 "Hg31 mi
7:00 PM62 °FScattered clouds.1 mph55%29.98 "Hg31 mi
6:00 PM63 °FPassing clouds.1 mph52%29.98 "Hg28 mi
Weather by CustomWeather, © 2014

See weather overviewHow to use our weather pages